This demonstration page uses our WeatherBlox Daily Observations layout. Learn more.

Left ArrowRight Arrow

Hourly Observations for March 19, 2021

Temp ( °F °C ) Dew Point ( °F °C ) Humidity (%) Winds ( mph kmh ) Pressure ( in mb ) Visibility ( mi km ) Precip ( " mm )
12:53 am 00:53 Clear 40 4.4 25 -3.9 55 55 WSW 5 7 29.90 1013 10 16 N/A
1:53 am 01:53 Clear 35 1.7 24 -4.4 64 64 NNW 5 7 29.89 1012 10 16 N/A
2:53 am 02:53 Clear 31 -0.6 23 -5 72 72 SSW 8 13 29.90 1012 10 16 N/A
3:53 am 03:53 Clear 33 0.6 24 -4.4 70 70 N N/A 29.89 1012 10 16 N/A
4:53 am 04:53 Clear 31 -0.6 23 -5 72 72 SE 3 6 29.88 1012 10 16 N/A
5:53 am 05:53 Clear 28 -2.2 23 -5 81 81 ESE 3 6 29.88 1012 10 16 N/A
6:53 am 06:53 Clear 28 -2.2 23 -5 81 81 N N/A 29.89 1012 10 16 N/A
7:53 am 07:53 Sunny 28 -2.2 22 -5.6 78 78 E 5 7 29.91 1013 10 16 N/A
8:53 am 08:53 Sunny 35 1.7 26 -3.3 70 70 E 6 9 29.90 1012 10 16 N/A
9:53 am 09:53 Sunny 42 5.6 27 -2.8 55 55 E 3 6 29.88 1012 10 16 N/A
10:53 am 10:53 Mostly Sunny 50 10 29 -1.7 44 44 WNW 6 9 29.88 1012 10 16 N/A
11:53 am 11:53 Mostly Cloudy 61 16.1 32 undefined 34 34 SW 13 20 29.84 1011 10 16 N/A
12:53 pm 12:53 Cloudy 60 15.6 30 -1.1 32 32 SW 15 24 29.85 1011 10 16 N/A
1:53 pm 13:53 Cloudy 60 15.6 31 -0.6 33 33 WSW 13 20 29.86 1011 10 16 N/A
2:53 pm 14:53 Mostly Sunny 63 17.2 34 1.1 34 34 SW 13 20 29.84 1010 10 16 N/A
3:53 pm 15:53 Sunny 63 17.2 34 1.1 34 34 SW 15 24 29.82 1010 10 16 N/A
4:53 pm 16:53 Sunny 64 17.8 33 0.6 32 32 SW 21 33 29.81 1009 10 16 N/A
5:53 pm 17:53 Sunny 62 16.7 31 -0.6 31 31 W 15 24 29.82 1010 10 16 N/A
6:53 pm 18:53 Sunny 60 15.6 33 0.6 36 36 W 7 11 29.81 1010 10 16 N/A
7:53 pm 19:53 Clear 48 8.9 32 undefined 54 54 SW 10 17 29.83 1010 10 16 N/A
8:53 pm 20:53 Clear 50 10 31 -0.6 48 48 WSW 9 15 29.85 1011 10 16 N/A
9:53 pm 21:53 Mostly Clear 48 8.9 29 -1.7 48 48 SW 10 17 29.88 1012 10 16 N/A
10:53 pm 22:53 Clear 46 7.8 28 -2.2 50 50 SW 16 26 29.87 1012 10 16 N/A
11:53 pm 23:53 Clear 44 6.7 26 -3.3 49 49 WSW 10 17 29.87 1011 10 16 N/A

Powered by AerisWeather